CZ-6A DEB, 60965

Orbit data source: Space-Track

CZ-6A DEB, 60965 is space debris in LEO originally from a launch on Tue, 06 Aug 2024 UTC launched from the Taiyaun Space Center, China (TSC). Debris objects in space refer to the collection of defunct objects orbiting the Earth. Examples of debris include non-operational satellites, rocket bodies, and fragments generated from explosions, collisions, or faulty payload assembly.

Loading next visibility...
Identifier
60965, 2024-140LQ
Orbit
LEO
Country
Flag of CNCN / PRC
Related business
Manufacturer
SAST
Mission
Spacecraft
Bus & Motor
Unknown
Mass
Unknown
Launch date (UTC)
2024-08-06 (2 years ago)
Launch vehicle
Unknown
Launch site
Taiyaun Space Center, China (TSC)
Object type
Payload
Rocket body
Debris
Shape & HBR
Unknown shape, 0.1 m
Radar Cross Section
Medium (>0.1 m² and <1 m²)

Expand to show TLE details & history
Last TLE update: 15 hours ago

TLE from 15 hours ago
0 CZ-6A DEB
1 60965U 24140LQ  26171.24053851  .00006994  00000-0  58146-3 0  9997
2 60965  88.9268 259.6162 0173918 138.2672 223.1976 14.87450061 98843
Epoch: 2026-06-20T05:46Z
TLE epoch observation values (Epoch: 2026-06-20T05:46:22.527Z)
Latitude
-0.00002°
Longitude
-95.43566°
Altitude
698.597 km
Speed
7.458 km/s
True Right ascension
17h 18m 27s
True Declination
0° 00' 00"
Sunlit
Object was in full shadow at epoch
Visualization orbit readout
Latitude
Unknown
Longitude
Unknown
Altitude
Unknown
Speed
Unknown
Apparent Right ascension
Unknown
Apparent Declination
Unknown
Sunlit
N/A
Visualization observer readout
Local Sidereal Time
07:19:10
Azimuth
Unknown
Elevation
Unknown
Doppler factor
Unknown
Orbital elements
Apogee altitude
724.171 km
Perigee altitude
481.35 km
Semi-major axis
6,980.897 km
Eccentricity
0.01739
Inclination
88.9268°
RAAN
259.6162°
Arg. of periapsis
138.2672°
True anomaly
221.85481°
Mean anomaly
223.1976°
Eccentric anomaly
222.52408°
Mean motion
3.72114 °/min
Orbital period
96.74 mins
BSTAR
0.00058146
Loading maneuver chart data...
Computing Atmospheric mass density...
Loading historical data...
Loading historical data...
Loading historical data...
Loading historical data...
Loading historical data...
Loading historical data...
Loading historical data...

Documentation

Showing up to 5 results
|